Regional Weather Roundup
Issued by NWS

Home | Current Version | Previous Version | Graphics & Text | Print | Product List | Glossary On
Versions: 1 2 3 4 5 6 7 8 9 10 11 12 13 14 15 16 17 18 19 20 21 22 23 24 25 26 27 28 29 30 31 32 33 34 35 36 37 38 39 40 41 42 43 44 45 46 47 48 49 50
000
ASUS43 KLMK 260902
RWRKY
KENTUCKY REGIONAL WEATHER ROUNDUP
NATIONAL WEATHER SERVICE LOUISVILLE KY
500 AM EDT TUE MAY 26 2015

NOTE "FAIR" INDICATES FEW OR NO CLOUDS BELOW 12,000 FEET
WITH NO SIGNIFICANT WEATHER AND/OR OBSTRUCTIONS TO VISIBILITY.

KYZ001>023-026-027-061>063-070>075-261000-
WESTERN AND SOUTH CENTRAL KENTUCKY

CITY           SKY/WX    TMP DP  RH WIND       PRES   REMARKS
PADUCAH        CLOUDY    71  66  84 S10       29.97F
HENDERSON      CLOUDY    68  64  88 S9        30.00F
OWENSBORO      CLOUDY    68  66  93 S10       30.04F
HOPKINSVILLE   PTCLDY    67  65  93 SE10      30.03F
BOWLING GREEN  MOCLDY    66  62  87 CALM      30.09S
GLASGOW        NOT AVBL
$$

KYZ024-025-028>034-038-045-046-053-261000-
NORTH CENTRAL KENTUCKY

CITY           SKY/WX    TMP DP  RH WIND       PRES   REMARKS
LOUISVILLE/SDF MOCLDY    67  63  87 SE6       30.08F
LOUISVILLE/LOU MOCLDY    67  64  90 S5        30.08F
FORT KNOX      MOCLDY    66  63  91 S7        30.07S
$$

KYZ035>037-039>044-047>052-055>060-089>105-261000-
NORTHEAST KENTUCKY

CITY           SKY/WX    TMP DP  RH WIND       PRES   REMARKS
LEXINGTON      MOCLDY    65  63  93 S6        30.12F
COVINGTON      MOCLDY    65  63  93 S8        30.10S
FRANKFORT      CLOUDY    65  62  90 SE3       30.10F
$$

KYZ054-064>069-076>088-106>120-261000-
SOUTHEAST KENTUCKY

CITY           SKY/WX    TMP DP  RH WIND       PRES   REMARKS
JACKSON        CLOUDY    67  63  87 CALM      30.17S
LONDON         CLOUDY    68  62  81 CALM      30.16R
SOMERSET       NOT AVBL
MIDDLESBORO    MOCLDY    67  65  93 E3        30.20R
MONTICELLO     MOSUNNY   69  65  87 S7        30.16S
$$



USA.gov is the U.S. government's official web portal to all federal, state and local government web resources and services.